When you browse on this site, cookies collect data to enhance your experience and personalize the content and advertising you see.
Visit our Privacy Policy to learn more. By continuing to use the site, you agree to this use of cookies and data.
  • En España
  • Lista de países
  • Para 7 días
  • Temperatura del agua
  • El tiempo en el mapa
  • Informadores
  • user-avatar
    Iniciar sesión

    Tiempo cada hora Sabadell

    Hoy, 22 Noviembre, Viernes

    Tiempo Temperatura Precipitaciones Viento Presión Humedad
    00:00 +9°C° 0 mm 1 mps 737 mmHg 76%
    01:00 +9°C° 0 mm 1 mps 737 mmHg 76%
    02:00 +9°C° 0 mm 1 mps 736 mmHg 76%
    03:00 +9°C° 0 mm 1 mps 736 mmHg 75%
    04:00 +9°C° 0 mm 1 mps 736 mmHg 74%
    05:00 +9°C° 0 mm 1 mps 736 mmHg 74%
    06:00 +9°C° 0 mm 1 mps 736 mmHg 71%
    07:00 +10°C° 0 mm 1 mps 735 mmHg 69%
    08:00 +11°C° 0 mm 1 mps 735 mmHg 67%
    09:00 +12°C° 0 mm 1 mps 735 mmHg 64%
    10:00 +13°C° 0 mm 1 mps 734 mmHg 65%
    11:00 +14°C° 0 mm 2 mps 734 mmHg 65%
    12:00 +15°C° 0 mm 2 mps 733 mmHg 65%
    13:00 +15°C° 0 mm 2 mps 732 mmHg 69%
    14:00 +13°C° 0 mm 3 mps 731 mmHg 73%
    15:00 +13°C° 0 mm 4 mps 730 mmHg 76%
    16:00 +13°C° 0.2 mm 4 mps 730 mmHg 81%
    17:00 +13°C° 0.2 mm 4 mps 730 mmHg 86%
    18:00 +12°C° 0.2 mm 4 mps 729 mmHg 91%
    19:00 +13°C° 3.1 mm 5 mps 728 mmHg 93%
    20:00 +13°C° 3.1 mm 6 mps 728 mmHg 94%
    21:00 +12°C° 3.1 mm 7 mps 727 mmHg 96%
    22:00 +12°C° 3 mm 7 mps 726 mmHg 94%
    23:00 +13°C° 3 mm 6 mps 725 mmHg 93%

    Mañana, 23 Noviembre, Sábado

    Tiempo Temperatura Precipitaciones Viento Presión Humedad
    00:00 +14°C° 3 mm 6 mps 725 mmHg 91%
    01:00 +13°C° 0.6 mm 5 mps 724 mmHg 89%
    02:00 +12°C° 0.6 mm 4 mps 724 mmHg 87%
    03:00 +12°C° 0.6 mm 4 mps 723 mmHg 85%
    04:00 +11°C° 0 mm 4 mps 723 mmHg 82%
    05:00 +11°C° 0 mm 4 mps 723 mmHg 80%
    06:00 +10°C° 0 mm 4 mps 723 mmHg 78%
    07:00 +11°C° 0 mm 4 mps 724 mmHg 76%
    08:00 +11°C° 0 mm 4 mps 724 mmHg 74%
    09:00 +12°C° 0 mm 3 mps 725 mmHg 72%
    10:00 +12°C° 0 mm 4 mps 725 mmHg 69%
    11:00 +13°C° 0 mm 5 mps 725 mmHg 66%
    12:00 +14°C° 0 mm 6 mps 725 mmHg 63%
    13:00 +13°C° 0 mm 6 mps 726 mmHg 63%
    14:00 +13°C° 0 mm 6 mps 726 mmHg 63%
    15:00 +12°C° 0 mm 7 mps 726 mmHg 62%
    16:00 +13°C° 0 mm 6 mps 727 mmHg 63%
    17:00 +12°C° 0 mm 4 mps 728 mmHg 64%
    18:00 +11°C° 0 mm 3 mps 729 mmHg 65%
    19:00 +11°C° 0 mm 3 mps 730 mmHg 66%
    20:00 +11°C° 0 mm 3 mps 731 mmHg 66%
    21:00 +12°C° 0 mm 2 mps 732 mmHg 67%
    22:00 +10°C° 0 mm 2 mps 732 mmHg 67%
    23:00 +10°C° 0 mm 2 mps 733 mmHg 67%

    Pasado mañana, 24 Noviembre, Domingo

    Tiempo Temperatura Precipitaciones Viento Presión Humedad
    00:00 +9°C° 0 mm 2 mps 733 mmHg 68%
    01:00 +9°C° 0 mm 2 mps 734 mmHg 69%
    02:00 +9°C° 0 mm 2 mps 734 mmHg 70%
    03:00 +8°C° 0 mm 3 mps 735 mmHg 70%
    04:00 +8°C° 0 mm 2 mps 735 mmHg 69%
    05:00 +8°C° 0 mm 2 mps 736 mmHg 67%
    06:00 +8°C° 0 mm 2 mps 736 mmHg 65%
    07:00 +9°C° 0 mm 2 mps 737 mmHg 62%
    08:00 +10°C° 0 mm 2 mps 738 mmHg 59%
    09:00 +12°C° 0 mm 2 mps 738 mmHg 56%
    10:00 +13°C° 0 mm 2 mps 739 mmHg 51%
    11:00 +14°C° 0 mm 1 mps 739 mmHg 47%
    12:00 +16°C° 0 mm 1 mps 739 mmHg 43%
    13:00 +16°C° 0 mm 1 mps 739 mmHg 44%
    14:00 +16°C° 0 mm 2 mps 739 mmHg 45%
    15:00 +16°C° 0 mm 2 mps 740 mmHg 45%
    16:00 +14°C° 0 mm 1 mps 740 mmHg 51%
    17:00 +13°C° 0 mm 1 mps 740 mmHg 57%
    18:00 +12°C° 0 mm 1 mps 741 mmHg 62%
    19:00 +12°C° 0 mm 1 mps 741 mmHg 63%
    20:00 +11°C° 0 mm 1 mps 741 mmHg 64%
    21:00 +11°C° 0 mm 1 mps 742 mmHg 65%
    22:00 +9°C° 0 mm 2 mps 742 mmHg 65%
    23:00 +9°C° 0 mm 2 mps 742 mmHg 66%

    25 Noviembre, Lunes

    Tiempo Temperatura Precipitaciones Viento Presión Humedad
    00:00 +9°C° 0 mm 2 mps 742 mmHg 67%
    01:00 +8°C° 0 mm 2 mps 741 mmHg 67%
    02:00 +8°C° 0 mm 2 mps 741 mmHg 68%
    03:00 +8°C° 0 mm 2 mps 741 mmHg 69%
    04:00 +8°C° 0 mm 2 mps 741 mmHg 67%
    05:00 +8°C° 0 mm 2 mps 741 mmHg 66%
    06:00 +8°C° 0 mm 2 mps 741 mmHg 65%
    07:00 +9°C° 0 mm 2 mps 741 mmHg 61%
    08:00 +9°C° 0 mm 2 mps 742 mmHg 57%
    09:00 +10°C° 0 mm 2 mps 742 mmHg 53%
    10:00 +13°C° 0 mm 2 mps 742 mmHg 49%
    11:00 +13°C° 0 mm 3 mps 742 mmHg 45%
    12:00 +14°C° 0 mm 3 mps 742 mmHg 41%
    13:00 +14°C° 0 mm 3 mps 742 mmHg 44%
    14:00 +14°C° 0 mm 3 mps 742 mmHg 48%
    15:00 +14°C° 0 mm 3 mps 742 mmHg 51%
    16:00 +13°C° 0 mm 3 mps 742 mmHg 54%
    17:00 +13°C° 0 mm 2 mps 742 mmHg 58%
    18:00 +12°C° 0 mm 2 mps 742 mmHg 61%
    19:00 +12°C° 0 mm 2 mps 743 mmHg 62%
    20:00 +10°C° 0 mm 2 mps 743 mmHg 62%
    21:00 +11°C° 0 mm 1 mps 743 mmHg 63%
    22:00 +10°C° 0 mm 2 mps 743 mmHg 63%
    23:00 +10°C° 0 mm 2 mps 743 mmHg 63%

    26 Noviembre, Martes

    Tiempo Temperatura Precipitaciones Viento Presión Humedad
    00:00 +10°C° 0 mm 2 mps 743 mmHg 63%
    01:00 +10°C° 0 mm 2 mps 743 mmHg 65%
    02:00 +10°C° 0 mm 2 mps 743 mmHg 66%
    03:00 +10°C° 0 mm 2 mps 743 mmHg 68%
    04:00 +11°C° 0 mm 1 mps 743 mmHg 70%
    05:00 +10°C° 0 mm 1 mps 743 mmHg 71%
    06:00 +10°C° 0 mm 1 mps 743 mmHg 73%
    07:00 +11°C° 0 mm 1 mps 743 mmHg 71%
    08:00 +12°C° 0 mm 1 mps 743 mmHg 70%
    09:00 +13°C° 0 mm 1 mps 743 mmHg 68%
    10:00 +14°C° 0 mm 1 mps 742 mmHg 66%
    11:00 +15°C° 0 mm 2 mps 742 mmHg 65%
    12:00 +16°C° 0 mm 2 mps 741 mmHg 63%
    13:00 +16°C° 0 mm 3 mps 740 mmHg 62%
    14:00 +17°C° 0 mm 4 mps 740 mmHg 60%
    15:00 +16°C° 0 mm 5 mps 739 mmHg 58%
    16:00 +15°C° 0 mm 5 mps 739 mmHg 63%
    17:00 +14°C° 0 mm 4 mps 739 mmHg 68%
    18:00 +13°C° 0 mm 4 mps 739 mmHg 72%
    19:00 +12°C° 0 mm 4 mps 739 mmHg 73%
    20:00 +12°C° 0 mm 3 mps 739 mmHg 74%
    21:00 +12°C° 0 mm 3 mps 739 mmHg 76%
    22:00 +12°C° 0 mm 3 mps 739 mmHg 76%
    23:00 +11°C° 0 mm 3 mps 739 mmHg 76%

    27 Noviembre, Miércoles

    Tiempo Temperatura Precipitaciones Viento Presión Humedad
    00:00 +11°C° 0 mm 3 mps 738 mmHg 77%
    01:00 +11°C° 0 mm 3 mps 738 mmHg 77%
    02:00 +11°C° 0 mm 3 mps 738 mmHg 78%
    03:00 +11°C° 0 mm 3 mps 738 mmHg 79%
    04:00 +12°C° 0 mm 2 mps 738 mmHg 80%
    05:00 +12°C° 0 mm 2 mps 738 mmHg 81%
    06:00 +12°C° 0 mm 2 mps 738 mmHg 82%
    07:00 +12°C° 0 mm 2 mps 738 mmHg 79%
    08:00 +13°C° 0 mm 1 mps 739 mmHg 77%
    09:00 +14°C° 0 mm 1 mps 739 mmHg 74%
    10:00 +15°C° 0 mm 2 mps 739 mmHg 67%
    11:00 +16°C° 0 mm 2 mps 739 mmHg 60%
    12:00 +17°C° 0 mm 3 mps 739 mmHg 53%
    13:00 +17°C° 0 mm 3 mps 739 mmHg 52%
    14:00 +17°C° 0 mm 3 mps 739 mmHg 51%
    15:00 +17°C° 0 mm 3 mps 738 mmHg 51%
    16:00 +16°C° 0 mm 3 mps 739 mmHg 56%
    17:00 +13°C° 0 mm 3 mps 739 mmHg 61%
    18:00 +13°C° 0 mm 2 mps 739 mmHg 66%
    19:00 +13°C° 0 mm 2 mps 740 mmHg 68%
    20:00 +13°C° 0 mm 2 mps 740 mmHg 70%
    21:00 +13°C° 0 mm 2 mps 741 mmHg 71%
    22:00 +12°C° 0 mm 2 mps 741 mmHg 75%
    23:00 +12°C° 0 mm 1 mps 741 mmHg 78%
    Mostrar más